カタログに戻る

ARIANE 5 R/B

運用中HEO
NORAD 44802·ROCKET BODY·🇫🇷 France

打ち上げ Nov 26, 2019 から Guiana Space Centre

Loading…

次のパス (今後24時間)

TLE

最新Source: Space-Track

元期: Sep 13, 2026, 16:28 UTC

1 44802U 19080C   26256.68629981  .00002418  00000-0  40891-3 0  9996
2 44802   5.1694 134.0164 6967100 307.5473   7.6429  2.69506552 61726

AllMySatでARIANE 5 R/Bをリアルタイム追跡

Download on the App Store